Simultaneous Nadir Overpasses (SNOs) Predictions

Prediction of SNOs between NOAA-19 and METOP-C Satellite Orbit:

Table of predicted SNOs for the next 14.0 days since TLE Epoch: 8/23/2019
Index Date (NOAA-19) Time (NOAA-19) Lat,Lon (NOAA-19) SZA (NOAA-19 ) Date (METOP-C) Time (METOP-C) Lat,Lon (METOP-C) SZA (METOP-C ) Distance(km) Time Diff (sec)
1 08/25/2019 12:53:43 -79.71,-179.01 110.77 08/25/2019 12:54:46 -79.68,-174.28 110.54 94.20 63
2 08/25/2019 13:44:39 79.43, -8.90 69.12 08/25/2019 13:45:34 79.44, -8.91 69.14 1.40 55
3 08/25/2019 14:35:34 -79.44, 158.30 110.87 08/25/2019 14:36:15 -79.44, 158.36 110.86 1.23 41
4 08/25/2019 15:26:40 79.44, -34.46 69.14 08/25/2019 15:26:56 79.43, -34.37 69.14 2.18 16
5 08/25/2019 16:17:34 -79.42, 133.02 110.86 08/25/2019 16:17:37 -79.42, 132.91 110.86 2.28 3
6 08/25/2019 17:08:40 79.42, -59.74 69.16 08/25/2019 17:08:18 79.42, -59.82 69.15 1.48 22
7 08/25/2019 17:59:35 -79.42, 107.45 110.83 08/25/2019 17:58:59 -79.41, 107.46 110.85 1.65 36
8 08/25/2019 18:50:40 79.42, -85.31 69.19 08/25/2019 18:49:39 79.40, -85.27 69.15 2.45 61
9 08/25/2019 19:41:34 -79.40, 82.17 110.82 08/25/2019 19:40:20 -79.40, 82.01 110.85 3.28 74
10 09/05/2019 13:16:33 79.46, -1.76 73.13 09/05/2019 13:17:34 79.47, -1.74 73.15 0.59 61
11 09/05/2019 14:07:28 -79.46, 165.53 106.86 09/05/2019 14:08:16 -79.45, 165.45 106.86 2.09 48
12 09/05/2019 14:58:33 79.44, -27.04 73.15 09/05/2019 14:58:56 79.45, -27.19 73.16 3.26 23
13 09/05/2019 15:49:28 -79.44, 140.24 106.84 09/05/2019 15:49:37 -79.47, 140.27 106.81 3.28 9
14 09/05/2019 16:40:34 79.45, -52.61 73.18 09/05/2019 16:40:18 79.44, -52.64 73.17 1.20 16
15 09/05/2019 17:31:29 -79.45, 114.68 106.81 09/05/2019 17:30:59 -79.46, 114.82 106.80 3.04 30
16 09/05/2019 18:22:35 79.46, -78.18 73.21 09/05/2019 18:21:40 79.43, -78.09 73.17 3.80 55




NCC Satellite Simultaneous Nadir Overpasses (SNOs) Prediction Service
